When you browse on this site, cookies collect data to enhance your experience and personalize the content and advertising you see.
Visit our Privacy Policy to learn more. By continuing to use the site, you agree to this use of cookies and data.

Meteo orario Korostyshev

Oggi, 25 Settembre, Venerdi

Tempo Temperatura Precipitazioni Vento Pressione Umidità
00:00 +16°C° 0 mm 2 m/s 743 mm Hg 52%
01:00 +16°C° 0 mm 2 m/s 743 mm Hg 53%
02:00 +16°C° 0 mm 2 m/s 743 mm Hg 54%
03:00 +16°C° 0 mm 2 m/s 743 mm Hg 55%
04:00 +15°C° 0 mm 2 m/s 743 mm Hg 56%
05:00 +15°C° 0 mm 2 m/s 742 mm Hg 57%
06:00 +16°C° 0 mm 3 m/s 742 mm Hg 58%
07:00 +17°C° 0 mm 3 m/s 742 mm Hg 59%
08:00 +18°C° 0 mm 3 m/s 742 mm Hg 60%
09:00 +20°C° 0 mm 4 m/s 742 mm Hg 56%
10:00 +23°C° 0 mm 4 m/s 742 mm Hg 52%
11:00 +26°C° 0 mm 5 m/s 742 mm Hg 49%
12:00 +26°C° 0 mm 5 m/s 742 mm Hg 45%
13:00 +27°C° 0 mm 5 m/s 741 mm Hg 41%
14:00 +28°C° 0 mm 5 m/s 741 mm Hg 37%
15:00 +27°C° 0 mm 4 m/s 740 mm Hg 40%
16:00 +26°C° 0 mm 4 m/s 740 mm Hg 43%
17:00 +25°C° 0 mm 3 m/s 740 mm Hg 45%
18:00 +23°C° 0 mm 4 m/s 740 mm Hg 44%
19:00 +22°C° 0 mm 4 m/s 739 mm Hg 43%
20:00 +20°C° 0 mm 4 m/s 739 mm Hg 42%
21:00 +20°C° 0 mm 4 m/s 739 mm Hg 47%
22:00 +19°C° 0 mm 4 m/s 739 mm Hg 52%
23:00 +19°C° 0 mm 4 m/s 739 mm Hg 58%

Domani, 26 Settembre, Sabato

Tempo Temperatura Precipitazioni Vento Pressione Umidità
00:00 +18°C° 0.2 mm 4 m/s 739 mm Hg 63%
01:00 +18°C° 0.2 mm 4 m/s 739 mm Hg 69%
02:00 +18°C° 0.2 mm 4 m/s 739 mm Hg 74%
03:00 +17°C° 0 mm 4 m/s 739 mm Hg 73%
04:00 +17°C° 0 mm 4 m/s 739 mm Hg 71%
05:00 +16°C° 0 mm 5 m/s 738 mm Hg 70%
06:00 +16°C° 0 mm 5 m/s 738 mm Hg 68%
07:00 +17°C° 0 mm 5 m/s 738 mm Hg 66%
08:00 +19°C° 0 mm 6 m/s 738 mm Hg 63%
09:00 +21°C° 0 mm 6 m/s 738 mm Hg 59%
10:00 +23°C° 0 mm 7 m/s 739 mm Hg 54%
11:00 +26°C° 0 mm 7 m/s 739 mm Hg 50%
12:00 +26°C° 0 mm 7 m/s 738 mm Hg 47%
13:00 +27°C° 0 mm 7 m/s 738 mm Hg 44%
14:00 +28°C° 0 mm 7 m/s 737 mm Hg 41%
15:00 +27°C° 0 mm 6 m/s 737 mm Hg 43%
16:00 +26°C° 0 mm 5 m/s 737 mm Hg 45%
17:00 +26°C° 0 mm 5 m/s 737 mm Hg 47%
18:00 +25°C° 0 mm 5 m/s 736 mm Hg 48%
19:00 +23°C° 0 mm 5 m/s 736 mm Hg 48%
20:00 +23°C° 0 mm 6 m/s 736 mm Hg 49%
21:00 +22°C° 0 mm 6 m/s 736 mm Hg 50%
22:00 +22°C° 0 mm 6 m/s 736 mm Hg 51%
23:00 +22°C° 0 mm 6 m/s 736 mm Hg 53%

Dopodomani, 27 Settembre, Domenica

Tempo Temperatura Precipitazioni Vento Pressione Umidità
00:00 +21°C° 0 mm 6 m/s 736 mm Hg 56%
01:00 +21°C° 0 mm 6 m/s 736 mm Hg 59%
02:00 +20°C° 0 mm 6 m/s 735 mm Hg 62%
03:00 +20°C° 0 mm 7 m/s 735 mm Hg 60%
04:00 +20°C° 0 mm 7 m/s 735 mm Hg 59%
05:00 +20°C° 0 mm 8 m/s 734 mm Hg 58%
06:00 +18°C° 0.3 mm 8 m/s 734 mm Hg 61%
07:00 +18°C° 0.3 mm 8 m/s 734 mm Hg 64%
08:00 +18°C° 0.3 mm 9 m/s 734 mm Hg 67%
09:00 +18°C° 0.6 mm 9 m/s 734 mm Hg 69%
10:00 +18°C° 0.6 mm 9 m/s 735 mm Hg 72%
11:00 +19°C° 0.6 mm 9 m/s 736 mm Hg 74%
12:00 +18°C° 0.2 mm 9 m/s 737 mm Hg 68%
13:00 +18°C° 0.2 mm 8 m/s 737 mm Hg 62%
14:00 +18°C° 0.2 mm 8 m/s 738 mm Hg 56%
15:00 +17°C° 0 mm 6 m/s 739 mm Hg 57%
16:00 +18°C° 0 mm 4 m/s 740 mm Hg 58%
17:00 +17°C° 0 mm 3 m/s 741 mm Hg 59%
18:00 +15°C° 0 mm 2 m/s 741 mm Hg 64%
19:00 +14°C° 0 mm 1 m/s 742 mm Hg 69%
20:00 +12°C° 0 mm 0 m/s 743 mm Hg 74%
21:00 +13°C° 0 mm 1 m/s 743 mm Hg 75%
22:00 +12°C° 0 mm 2 m/s 743 mm Hg 76%
23:00 +12°C° 0 mm 2 m/s 744 mm Hg 76%

28 Settembre, Lunedi

Tempo Temperatura Precipitazioni Vento Pressione Umidità
00:00 +12°C° 0 mm 2 m/s 744 mm Hg 75%
01:00 +11°C° 0 mm 3 m/s 744 mm Hg 74%
02:00 +12°C° 0 mm 3 m/s 745 mm Hg 73%
03:00 +11°C° 0.1 mm 3 m/s 745 mm Hg 75%
04:00 +11°C° 0.1 mm 3 m/s 745 mm Hg 77%
05:00 +11°C° 0.1 mm 3 m/s 745 mm Hg 80%
06:00 +12°C° 0.2 mm 4 m/s 745 mm Hg 78%
07:00 +13°C° 0.2 mm 4 m/s 745 mm Hg 77%
08:00 +13°C° 0.2 mm 4 m/s 745 mm Hg 76%
09:00 +15°C° 0 mm 5 m/s 745 mm Hg 68%
10:00 +17°C° 0 mm 5 m/s 745 mm Hg 60%
11:00 +19°C° 0 mm 5 m/s 745 mm Hg 53%
12:00 +21°C° 0 mm 5 m/s 745 mm Hg 49%
13:00 +22°C° 0 mm 5 m/s 745 mm Hg 45%
14:00 +23°C° 0 mm 5 m/s 745 mm Hg 41%
15:00 +22°C° 0 mm 4 m/s 744 mm Hg 45%
16:00 +22°C° 0 mm 3 m/s 744 mm Hg 49%
17:00 +21°C° 0 mm 2 m/s 744 mm Hg 53%
18:00 +20°C° 0.1 mm 2 m/s 744 mm Hg 55%
19:00 +19°C° 0.1 mm 2 m/s 744 mm Hg 56%
20:00 +18°C° 0.1 mm 1 m/s 744 mm Hg 58%
21:00 +18°C° 0 mm 1 m/s 744 mm Hg 61%
22:00 +16°C° 0 mm 1 m/s 743 mm Hg 63%
23:00 +15°C° 0 mm 1 m/s 743 mm Hg 66%

29 Settembre, Martedi

Tempo Temperatura Precipitazioni Vento Pressione Umidità
00:00 +15°C° 0 mm 1 m/s 743 mm Hg 67%
01:00 +15°C° 0 mm 1 m/s 743 mm Hg 68%
02:00 +14°C° 0 mm 2 m/s 743 mm Hg 69%
03:00 +14°C° 0 mm 2 m/s 742 mm Hg 68%
04:00 +15°C° 0 mm 2 m/s 742 mm Hg 68%
05:00 +14°C° 0 mm 3 m/s 742 mm Hg 67%
06:00 +14°C° 0 mm 3 m/s 742 mm Hg 72%
07:00 +15°C° 0 mm 4 m/s 741 mm Hg 77%
08:00 +16°C° 0 mm 5 m/s 741 mm Hg 81%
09:00 +19°C° 0 mm 5 m/s 741 mm Hg 74%
10:00 +20°C° 0 mm 5 m/s 740 mm Hg 67%
11:00 +22°C° 0 mm 5 m/s 740 mm Hg 60%
12:00 +23°C° 0.4 mm 5 m/s 739 mm Hg 56%
13:00 +25°C° 0.4 mm 5 m/s 739 mm Hg 52%
14:00 +25°C° 0.4 mm 5 m/s 738 mm Hg 48%
15:00 +22°C° 0.3 mm 5 m/s 738 mm Hg 57%
16:00 +20°C° 0.3 mm 5 m/s 737 mm Hg 65%
17:00 +18°C° 0.3 mm 4 m/s 737 mm Hg 73%
18:00 +17°C° 0.6 mm 4 m/s 737 mm Hg 80%
19:00 +15°C° 0.6 mm 4 m/s 737 mm Hg 86%
20:00 +14°C° 0.6 mm 4 m/s 737 mm Hg 93%
21:00 +14°C° 1.6 mm 4 m/s 736 mm Hg 94%
22:00 +14°C° 1.6 mm 4 m/s 736 mm Hg 95%
23:00 +14°C° 1.6 mm 4 m/s 736 mm Hg 96%

30 Settembre, Mercoledi

Tempo Temperatura Precipitazioni Vento Pressione Umidità
00:00 +13°C° 5.5 mm 5 m/s 735 mm Hg 95%
01:00 +13°C° 5.5 mm 6 m/s 735 mm Hg 95%
02:00 +12°C° 5.5 mm 7 m/s 734 mm Hg 94%
03:00 +11°C° 1.6 mm 7 m/s 734 mm Hg 93%
04:00 +11°C° 1.6 mm 7 m/s 734 mm Hg 92%
05:00 +11°C° 1.6 mm 7 m/s 734 mm Hg 91%
06:00 +11°C° 0.8 mm 6 m/s 734 mm Hg 92%
07:00 +12°C° 0.8 mm 5 m/s 734 mm Hg 92%
08:00 +12°C° 0.8 mm 5 m/s 735 mm Hg 92%
09:00 +12°C° 1 mm 5 m/s 735 mm Hg 92%
10:00 +11°C° 1 mm 6 m/s 735 mm Hg 91%
11:00 +11°C° 1 mm 6 m/s 735 mm Hg 90%
12:00 +11°C° 0.4 mm 6 m/s 736 mm Hg 89%
13:00 +11°C° 0.4 mm 6 m/s 736 mm Hg 88%
14:00 +11°C° 0.4 mm 6 m/s 736 mm Hg 87%
15:00 +12°C° 0.4 mm 5 m/s 736 mm Hg 86%
16:00 +12°C° 0.4 mm 5 m/s 736 mm Hg 85%
17:00 +12°C° 0.4 mm 4 m/s 737 mm Hg 84%
18:00 +11°C° 0 mm 4 m/s 737 mm Hg 86%
19:00 +11°C° 0 mm 4 m/s 737 mm Hg 87%
20:00 +11°C° 0 mm 3 m/s 738 mm Hg 89%
21:00 +11°C° 0.1 mm 4 m/s 738 mm Hg 90%
22:00 +10°C° 0.1 mm 4 m/s 738 mm Hg 91%
23:00 +9°C° 0.1 mm 5 m/s 739 mm Hg 92%
Mostrare altro